CAPE
2305 2319 1930 2201 2342 2473 2566 2632 2513 2464 2484 2542 2695 2640 2691 2681 2587 2522 2541 2490 2573 2624 2541 2403 2379 2269 2113 2027 1575 1621 1760 1378 1420 1628 1744 1766 1490 1348 1323 1166 1038 1070 954 828 791 586 337 272 252 191 143 88 24 4 18 263 196 107 67 56 18 84 113 38 129 128 113 114 61 57 62 50 66 184 115 81 71 23 20 18 36 5 18 26 17
2329 2152 1888 2240 2492 2421 2422 2435 2584 2493 2317 2486 2737 2723 2665 2700 2688 2707 2697 2689 2636 2466 2260 2188 2112 1931 1758 2030 2023 1740 1497 1656 1770 1563 1612 1411 1470 1364 1171 1094 977 780 640 594 421 317 171 69 70 62 24 0 77 248 172 78 45 14 12 3 49 107 376 447 406 192 16 9 10 48 40 22 18 28 20 22 12 11 4 11 14 10 18 14 5
2249 2324 2276 2141 2482 2533 2441 2407 2416 2474 2444 2414 2497 2827 2788 2755 2749 2716 2636 2594 2447 2305 2247 2014 1843 1882 2062 2053 1885 1532 1724 1654 1336 1468 1468 1452 1389 1134 816 782 744 523 479 358 360 156 79 69 79 142 131 54 26 10 0 0 3 40 47 22 7 3 87 276 329 248 114 73 74 28 12 13 15 12 14 22 24 14 5 4 5 12 12 3 0
2544 2536 2398 2007 1677 1785 2320 2282 2201 2404 2362 2300 2616 2773 2781 2795 2779 2707 2581 2525 2207 2267 1970 1670 1930 1896 1819 1581 1369 1611 1512 1447 1366 1561 1514 1471 1136 667 742 621 556 457 300 275 289 108 53 133 132 174 107 0 0 0 0 0 0 2 8 9 11 76 84 156 161 296 227 46 23 20 16 11 12 14 24 26 25 13 10 12 15 17 14 2 0
1991 2275 1696 1213 1069 1381 1712 2209 2240 2192 2164 2145 2534 2731 2688 2752 2673 2569 2485 2442 2312 1981 1916 2021 1808 1426 1476 1344 1536 1326 1409 981 1257 1568 1481 1318 1273 1163 928 765 563 374 285 247 348 210 111 77 268 245 141 50 12 7 2 7 1 0 0 1 5 105 63 72 102 226 207 122 54 55 27 20 33 35 35 45 44 45 39 31 35 35 34 19 12
1761 1608 1364 1143 1415 1313 1599 1809 2074 2142 2152 2298 2403 2577 2633 2661 2521 2451 2316 2156 2039 1933 1827 2047 1940 1633 1459 1402 1335 1178 824 1029 1361 1399 1587 1368 810 633 573 559 587 703 538 388 182 102 69 84 218 313 259 163 208 450 170 39 42 10 1 0 0 25 61 89 97 99 108 49 18 94 74 84 71 94 99 91 66 45 51 68 44 42 33 34 26
2097 1956 1994 2143 1544 1292 1295 1336 1841 2058 2096 2274 2417 2516 2478 2498 2467 2313 2136 2061 1925 1913 1689 1738 1712 1532 1460 1471 1161 1170 991 1135 1350 1375 1439 1364 1316 1201 986 526 581 607 405 309 238 204 115 115 277 348 406 408 445 484 442 285 129 58 24 22 52 36 22 20 31 32 74 219 47 59 78 42 81 97 98 108 71 54 63 68 47 41 27 24 25
2165 2254 2003 1219 1960 1403 1196 1427 2020 2034 2203 2376 2380 2401 2420 2441 2296 2213 2194 2174 1928 1614 1662 1822 1576 1395 1388 1364 892 824 1075 1084 1299 1464 1563 1390 1080 543 428 656 939 708 455 307 283 301 257 258 438 506 731 621 592 604 440 307 345 211 101 93 80 28 7 8 7 9 7 7 6 22 52 30 93 109 87 74 46 29 19 17 11 15 13 24 21
2024 2198 1746 1475 1271 1406 1212 1537 1999 2035 2382 2389 2453 2408 2376 2340 2354 2298 2040 1995 1889 1833 1857 1934 1821 1769 1525 1292 986 881 1120 1260 1450 1448 1370 1270 1146 1133 1079 980 921 756 561 340 284 229 276 374 352 484 622 528 427 400 426 337 324 318 136 76 44 24 11 2 2 2 11 17 16 8 25 49 74 83 64 30 18 11 11 18 26 16 16 16 18
1799 1726 1339 1069 1118 1040 1280 1464 1606 1803 2128 2375 2148 2025 2030 1786 2090 2100 1992 1912 2006 2061 1935 1880 1798 1616 1748 1386 1059 1030 1020 1140 1583 1552 1500 1503 1481 1121 1036 946 688 499 384 311 279 302 327 377 445 498 484 390 234 340 324 365 354 340 187 64 15 38 15 5 4 2 6 4 21 24 164 14 14 30 14 12 2 1 17 84 67 23 18 12 0
1550 1409 1025 1178 993 1314 1516 1690 1814 1484 1534 1549 1834 1811 1672 1719 1763 1779 1854 1725 1904 2050 1842 1558 1682 1666 1746 1501 1276 1232 1329 1584 1546 1344 1264 1236 1246 1123 963 832 726 527 431 378 440 367 348 382 414 381 474 483 468 417 379 378 443 412 176 110 53 37 7 5 53 0 5 5 10 14 31 34 16 12 2 0 0 1 19 23 20 17 17 14 4
1249 1022 1012 1268 1161 1133 1378 1744 1740 1821 1680 1925 2005 1907 1835 1635 1668 1542 1711 1748 1886 2131 2097 1682 2022 1874 1532 1162 928 1033 1272 1529 1510 1352 1206 1115 1002 950 869 670 596 506 465 468 337 461 509 466 402 334 467 599 612 694 647 572 572 522 270 132 135 48 3 6 31 0 2 5 10 10 5 16 4 8 1 0 4 6 19 16 14 20 21 9 2
1342 928 1035 1228 1168 1334 1813 1825 1724 1699 1711 1810 1813 1464 1576 1583 1457 1642 1671 1598 1745 1695 1990 2078 1950 1783 1606 1510 1525 1570 1652 1583 1532 1420 1277 1158 986 868 908 835 615 587 530 553 513 555 440 357 455 704 826 866 861 805 881 784 714 625 344 217 130 98 16 2 0 0 0 5 0 0 0 0 11 4 11 11 16 22 22 28 31 25 24 16 9
1211 1011 1192 1276 1514 1851 2094 1757 1311 1618 1643 1708 1572 1495 1629 1520 1446 1592 1383 1422 1890 2129 2128 2041 1933 1764 1616 1636 1692 1693 1807 1768 1594 1588 1437 1203 1113 898 777 933 853 675 638 580 522 515 491 514 689 955 947 872 805 969 1051 1006 959 753 368 238 181 41 2 38 2 0 2 0 0 0 1 6 8 40 41 55 42 29 17 66 20 18 10 7 6
1167 1372 1640 1436 1458 1816 1746 1405 1480 1388 1716 1701 1479 1659 1495 1610 1347 1263 1623 2037 2388 2357 2216 2115 1998 1875 1756 1706 1767 1952 1998 2001 1687 1633 1396 1344 1149 1072 756 625 726 637 558 582 590 576 544 640 926 933 873 777 735 798 1114 1138 1070 800 391 248 224 34 0 0 0 0 0 0 0 0 5 7 18 118 87 88 31 12 12 13 14 5 4 6 2
1130 1782 1463 1538 1375 1506 1001 1827 1507 1306 1752 1788 1786 1764 1815 1783 1691 2211 2604 2581 2488 2510 2364 2266 2084 1849 1571 1488 1667 1940 1988 1996 2042 1776 1726 1478 1290 1231 1120 855 623 632 614 600 629 590 542 675 892 960 810 673 671 680 772 896 965 749 463 318 154 20 5 240 0 1 0 0 0 2 6 10 7 125 78 14 10 10 12 10 4 4 10 9 7
1738 1369 1314 1345 1415 1212 1126 1692 1656 1798 1818 1874 1860 2014 2154 1986 2131 2299 2282 2208 2272 2355 2248 2231 2162 1841 1602 1547 1680 1888 2098 2107 2096 2064 1949 1735 1595 1340 1232 1117 853 687 682 652 716 608 544 614 888 1046 951 769 616 670 700 698 698 759 530 362 193 37 17 43 0 0 0 0 0 0 9 5 14 9 3 5 13 10 4 7 4 2 9 6 5
1399 1398 1097 974 1100 1477 1730 1446 2007 1740 1780 1881 2054 1939 1947 2077 2068 1961 2030 2134 2106 2184 2072 2101 2137 2087 1993 1893 1910 1846 2024 2053 2220 2155 2099 1998 1750 1587 1326 1207 1099 988 791 728 709 740 587 575 766 933 1023 996 881 730 743 766 830 771 661 451 233 144 16 22 0 0 0 0 0 0 6 14 14 21 5 7 10 2 2 7 1 0 5 2 4
1717 1307 1121 1064 1499 1630 2304 1826 2006 2059 2331 1928 1782 1567 1843 2245 1830 1944 1827 1997 1933 1963 1921 1855 1779 1885 1832 1884 1879 1964 1887 1946 1937 1911 1950 1811 1811 1792 1624 1412 1268 1145 1126 982 757 729 719 555 604 677 767 926 1065 1113 1078 784 638 824 764 620 220 126 175 11 0 0 0 0 0 0 0 7 12 20 14 7 11 2 1 6 1 0 0 1 5
1644 1761 1532 1379 1576 2783 2547 2615 2184 2227 2318 1633 1708 1855 1858 1785 2013 2084 2161 1966 1856 1813 1743 1649 1788 1985 1809 1785 1771 1940 1766 1832 1820 1922 1951 1916 1764 1525 1845 1677 1418 1291 1218 1132 956 857 886 667 609 622 725 828 1079 1041 1011 1119 1188 737 724 693 469 203 77 0 2 1 0 0 0 0 0 22 14 6 14 10 15 3 1 5 4 3 4 6 6
1669 1598 1936 2485 2890 2585 2259 2395 2387 2334 2494 2481 2490 1760 1998 1795 2042 1944 2207 2182 2077 2039 2034 1990 1798 1761 1788 1724 1704 2329 2418 2298 2335 2062 1762 2073 1924 1838 1657 1816 1685 1539 1425 1292 1230 1127 986 914 583 653 699 806 995 1026 924 800 875 1042 1035 689 564 451 37 14 10 4 0 0 0 0 0 2 0 2 9 4 16 11 12 9 6 6 6 7 8
1576 2021 2215 2286 2487 2459 2306 2226 2076 2072 2086 2091 2038 2405 2168 2157 1823 2340 2573 2349 2062 1954 1789 2065 1644 1767 1778 1769 2137 2129 2364 2334 2171 1818 2134 2032 1908 1593 1609 1548 1682 1712 1621 1577 1588 1390 1411 1375 830 527 968 1135 1137 591 569 826 1168 1152 1136 980 663 196 156 125 43 1 0 2 4 0 0 0 0 1 2 3 6 14 17 9 7 3 4 4 6
1832 1780 1754 2006 2116 2273 2394 2134 2003 2104 2088 1964 2032 2344 2417 2436 1649 2493 2296 2388 2135 2049 1706 1633 1619 1383 1504 1562 1925 2011 2054 2313 2159 2170 2053 1401 1714 1614 1634 1793 1733 1708 1608 1722 1577 1549 1540 1418 1233 586 184 633 273 614 513 657 875 1442 1251 1193 395 317 281 178 138 86 2 0 5 0 0 3 0 0 0 1 0 3 15 6 8 6 3 5 6
1826 1697 1684 1936 1478 2086 2086 2039 2114 2327 2194 2278 2193 1836 2073 2292 2238 2227 2222 2448 2682 2602 2048 1774 1787 1810 1582 1406 1338 1542 1546 1583 1254 1400 1754 2003 1708 1540 1524 1769 1710 1815 1845 1783 1662 1618 1497 1309 1066 1021 673 50 579 375 415 534 793 793 599 601 498 682 616 537 388 271 202 0 0 0 0 9 3 0 0 0 0 1 3 10 0 0 0 0 2
1846 1852 1793 1769 2017 2237 2036 2095 2023 2031 2130 2167 2132 2104 2364 2540 2600 2607 2532 2405 2537 2550 2248 1889 1867 1839 1627 1485 1314 1403 1290 1232 1338 1343 1218 1138 1664 1938 1563 1482 1084 1280 1257 977 1108 777 1214 909 858 938 826 984 816 596 450 596 597 741 843 838 801 859 775 673 593 630 521 321 152 4 2 23 19 0 0 0 0 0 0 0 0 1 0 2 3
1937 1937 1735 1744 1779 1947 1913 1893 1944 1995 1833 1784 1845 1908 2203 2355 2369 2521 2481 2543 2390 2511 2362 2308 2204 1993 1604 1504 1465 1444 1558 1572 1452 1241 1068 1390 1517 1562 1491 1435 1781 1732 1153 1550 1129 707 706 844 1046 895 789 742 937 855 743 649 718 676 975 1020 1113 1132 1051 1014 989 916 727 593 290 4 8 42 29 2 0 0 0 0 0 0 0 0 0 2 2
1817 1859 1873 1788 1786 2027 2363 2036 1917 1726 1730 1779 1766 1795 1955 2323 2406 2241 2348 2473 2412 2330 2416 2512 2531 2492 2103 2019 1763 1784 1826 1857 1742 1656 1295 1366 1344 1446 1448 1274 1751 1728 1862 2017 1711 1116 615 606 765 967 869 816 763 938 738 701 766 865 1028 1097 1252 1258 1336 1324 1185 1223 1020 826 618 23 11 30 50 23 4 5 0 0 0 0 0 0 0 0 0
1862 1728 1691 1813 1330 1886 2089 2022 1881 2085 1922 1548 1687 1573 1570 1588 1714 2355 2403 2186 2472 2497 2638 2677 2722 2555 2350 2344 1906 2008 1947 1715 1589 1624 1512 1456 1626 1472 1667 1363 1428 1568 1791 1746 1885 1960 1701 923 644 821 968 942 895 963 1133 1090 1081 1131 1376 1310 1512 1628 1575 1511 1383 1270 1238 1069 827 122 28 45 57 92 34 27 24 13 0 0 0 0 0 0 0
1828 1738 1645 1557 1773 1902 1912 1867 1779 1826 1692 1782 1806 1781 2050 2403 2469 2400 2379 1990 2430 2406 2520 2579 2464 2417 2424 2175 1915 1776 1604 1617 1621 1412 1472 1313 1495 1751 1795 1919 1534 1604 1330 1764 1570 1749 1928 1642 978 746 763 849 1072 1052 1198 1211 1491 1526 1419 1324 1475 1656 1802 1772 1577 1363 1306 1312 1214 666 193 44 74 202 138 82 82 105 35 7 1 0 0 0 0
1621 1451 1146 1025 1081 1206 1341 1531 1816 1632 1618 1684 1807 1825 1963 2040 2165 2105 2236 2442 2550 2551 2526 2342 2317 2231 2146 1920 1809 1860 1763 1591 1713 1675 1562 1572 1444 1357 1410 1776 1837 1707 1331 1536 1717 1550 1780 1802 1819 1448 1288 1322 985 971 1168 1196 1236 1326 1461 1680 1605 1699 1766 1797 1602 1389 1314 1351 1367 870 403 206 197 185 341 226 165 142 134 26 27 30 7 0 0
1430 882 791 805 807 760 1007 1133 1268 1500 1450 1408 1607 1758 1709 1681 1641 1811 1933 2099 2115 1967 1547 1512 1598 1759 1936 1912 1931 1980 1890 1832 1599 1623 1647 1722 1686 1557 1424 1304 1283 1515 1603 1476 1610 1614 1607 1545 1679 1753 1671 1645 1574 1465 1080 1052 1135 1289 1562 1560 1584 1746 1780 1765 1671 1477 1340 1338 1431 1505 836 470 208 264 401 435 282 221 220 160 95 68 101 45 16
1187 900 754 834 754 518 680 733 830 971 884 805 732 730 769 907 972 1017 1165 1224 1300 1055 938 1007 1060 1273 1717 1682 1770 1839 1827 1873 1778 1705 1570 1660 1536 1575 1629 1577 1444 1362 1311 1302 1443 1459 1405 1257 1425 1560 1783 1749 1659 1668 1599 1423 1391 1207 1261 1376 1570 1638 1571 1699 1644 1649 1532 1562 1443 1446 1446 846 460 308 376 610 510 353 244 294 269 231 192 170 84
996 880 892 900 719 480 402 578 660 547 507 553 596 536 510 548 564 584 667 750 702 660 677 716 815 884 1151 1348 1687 1599 1722 1575 1843 1794 1673 1639 1688 1717 1554 1581 1559 1535 1566 1473 1338 1341 1440 1409 1671 1280 1247 1490 1644 1649 1434 1577 1545 1444 1380 1314 1615 1453 1416 1504 1692 1781 1730 1583 1544 1484 1473 1342 1032 491 346 533 670 510 372 338 369 419 382 252 209
742 801 746 502 279 297 340 479 475 493 449 435 401 432 387 229 225 294 352 377 388 405 399 516 505 556 651 674 997 1153 1172 1368 1474 1682 1666 1529 1431 1444 1429 1502 1520 1782 1638 1655 1491 1327 1191 1124 1170 1136 1035 926 1191 1542 1626 1533 1386 1420 1452 1355 1483 1518 1618 1453 1465 1644 1682 1538 1518 1587 1553 1505 1426 1119 573 623 797 671 560 389 388 410 528 528 402
849 631 350 48 192 225 254 246 348 309 310 352 206 261 357 188 129 133 144 278 158 151 194 189 222 227 271 498 566 734 774 986 1210 1374 1272 1211 1240 1181 1352 1117 1405 1725 1358 1344 1612 1314 1299 1159 973 1272 1072 1106 1009 587 898 1154 1372 1228 1273 1575 1446 1335 1603 1403 1454 1530 1394 1516 1357 1427 1539 1494 1560 1434 1259 1141 950 911 682 594 450 286 359 608 697
995 701 222 2 2 89 195 140 122 165 192 206 193 142 120 101 23 10 24 50 0 1 8 5 5 31 62 198 383 486 545 681 836 1203 1233 930 844 842 927 1214 1578 1603 1519 1570 1537 1191 1078 1321 1285 1280 1028 711 686 669 898 879 1008 1171 1245 1543 1598 1522 1474 1398 1510 1461 1294 1328 1258 1424 1315 1206 1261 1368 1218 1238 1526 1318 980 790 638 380 332 413 705
697 542 295 3 110 171 162 188 170 236 233 109 59 48 94 41 42 52 65 42 11 0 0 1 0 0 0 20 148 254 324 380 518 976 1106 989 550 560 704 1123 1641 1646 1569 1671 1493 1353 1290 1339 1442 1454 1359 1098 652 555 541 744 1127 1018 945 1182 1321 1549 1552 1250 1395 1455 1253 1345 1119 933 1056 1040 1176 1208 1184 1229 1281 1450 1578 1016 779 721 434 566 603
541 533 315 228 231 117 86 74 58 64 66 42 52 19 37 14 5 4 103 88 119 76 84 71 27 29 73 75 99 162 194 313 344 425 733 800 590 553 487 946 1158 1341 1487 1445 1387 1311 1437 1522 1430 1550 1452 1358 983 944 1018 990 1036 1097 1166 1070 1220 1426 1474 1522 1465 1315 1237 1135 1008 797 753 877 982 1042 1149 1138 1139 1298 1810 1368 994 868 779 688 657
686 456 395 310 221 128 76 73 52 41 20 38 29 40 124 58 85 124 219 229 208 136 141 109 137 254 203 300 280 251 319 186 341 414 523 552 681 790 616 741 768 892 931 943 931 1035 1298 1400 1387 1088 1300 1234 1101 1078 1104 1154 1266 1261 1514 1656 1692 1522 1385 1019 991 1177 1328 1210 970 809 683 821 867 795 814 934 1050 1078 1256 1730 1669 1266 1130 833 743
651 435 324 271 174 128 94 97 48 22 39 93 72 38 3 0 30 185 162 199 196 128 196 215 292 300 316 276 292 330 283 228 201 309 661 789 598 660 899 822 652 648 487 496 468 584 1102 1441 2133 936 906 873 882 993 1271 1537 1435 1493 1471 1560 1540 1549 1408 1245 1044 978 857 803 1076 1062 880 799 889 940 850 777 571 720 997 1335 1615 1290 1534 1332 813
288 352 287 243 220 88 71 59 81 124 60 0 0 0 0 5 35 53 128 213 119 298 311 225 142 122 149 113 169 226 254 268 240 248 493 581 435 474 540 620 495 459 495 421 443 436 544 765 934 1086 920 796 770 825 1016 1113 1060 887 986 1366 2206 2140 2032 1484 1375 1150 1031 1066 1144 1178 1235 1259 1244 1217 1259 1126 875 795 780 1090 1289 1278 1104 955 1511
302 249 236 173 147 85 69 92 87 58 36 38 25 5 0 0 1 0 88 34 94 108 140 81 127 170 206 213 207 136 239 213 214 250 442 583 526 506 675 807 652 428 416 300 322 457 483 638 814 758 663 611 628 560 626 860 756 570 618 646 553 342 714 2038 1810 1722 1655 1526 1517 1521 1656 1716 1666 1529 1492 1597 1676 1228 968 976 1089 1124 1102 956 961
256 205 100 91 76 49 67 76 66 87 66 41 1 1 14 27 56 51 52 221 213 139 82 62 170 188 242 277 272 282 217 213 175 150 308 393 468 670 705 813 795 883 608 300 322 378 452 521 679 674 622 613 581 598 722 931 704 669 737 553 272 416 1166 1471 1758 1376 1157 1145 1086 1335 1584 1710 1747 1770 1731 1612 1455 1403 1314 1140 1104 1060 1297 1504 1262
169 94 68 64 37 16 30 27 47 109 77 20 3 9 44 147 232 257 162 71 128 135 245 148 178 230 188 237 253 255 260 243 265 160 148 297 512 588 620 676 709 642 477 294 303 127 292 536 604 636 651 487 228 229 503 646 736 523 252 251 438 452 217 155 917 1153 924 1001 1092 1006 1154 1552 1488 1554 1723 1718 1534 1500 1545 1515 1394 1428 1349 1460 1352
188 149 88 42 38 21 14 5 4 6 15 26 10 34 98 125 202 379 382 324 196 138 104 80 82 96 77 214 244 228 221 259 203 217 182 226 313 453 466 524 716 568 470 339 256 284 397 475 596 726 619 553 397 348 394 675 606 725 606 448 232 243 394 663 641 545 627 674 1047 1188 1312 1184 1232 1661 1578 1567 1596 1532 1698 1584 1552 1354 1465 1493 1473
295 191 103 24 12 8 1 7 4 27 20 40 58 17 37 97 167 179 253 216 99 14 2 13 65 149 168 219 244 221 176 657 685 682 728 566 388 322 448 375 349 382 458 448 336 387 417 543 527 587 694 878 919 426 465 589 691 751 696 701 678 608 640 560 416 382 330 463 640 726 920 1336 1459 1530 1606 1451 1437 1542 1500 1655 1613 1413 1437 1410 1472
297 188 72 32 4 19 24 0 0 0 2 5 13 10 72 166 221 274 269 184 62 28 123 110 224 150 204 203 232 599 455 777 832 714 829 831 886 698 433 397 336 398 479 484 367 350 299 448 609 627 702 645 919 633 485 509 520 610 489 544 583 578 712 642 536 548 387 530 615 705 816 847 1135 1248 1250 1274 1295 1408 1433 1306 1207 1186 1570 1730 1815
265 134 93 28 7 6 3 0 0 0 0 3 0 13 42 146 232 263 156 97 70 34 87 126 212 165 157 237 204 329 764 660 643 644 608 668 774 794 759 838 509 483 402 430 468 520 531 475 544 622 610 707 794 609 484 371 347 358 401 628 818 822 551 546 764 617 566 555 590 453 600 1052 1307 1131 1084 1099 1105 1181 1242 1517 1010 1043 1318 1542 1666
220 156 58 60 52 6 0 0 0 0 0 2 14 26 27 140 214 262 129 31 36 62 51 93 192 161 277 329 356 347 710 682 547 531 366 616 648 686 658 734 830 1082 565 419 485 496 530 553 537 565 592 585 628 693 660 528 614 560 666 1047 1355 814 562 732 644 635 552 496 564 506 646 884 828 1067 1354 1144 1033 1070 1028 1094 1063 1021 1011 1012 1190
264 126 106 97 19 4 0 0 0 0 0 2 2 3 68 97 123 222 92 33 73 85 150 162 259 190 236 313 418 501 333 649 630 483 436 470 639 565 503 619 781 936 779 848 882 856 763 707 544 609 649 737 1182 651 652 569 526 580 803 755 810 731 724 796 920 1154 1216 1233 789 667 878 869 851 1112 1130 1255 1254 1020 854 836 968 932 917 976 1027
432 224 166 88 40 13 26 0 0 0 0 0 0 0 13 61 74 85 69 53 86 107 158 234 220 212 208 232 295 383 448 596 323 315 326 462 632 654 493 511 645 729 828 856 893 896 905 993 1005 1030 1080 1086 1069 1156 1081 1153 1105 1185 1066 1049 1132 1033 555 791 1033 900 936 1041 970 949 700 1008 957 920 958 1033 1080 944 838 813 820 750 933 838 720
Wind_Speed
22 24 24 21 18 24 25 26 24 19 18 19 21 21 19 18 17 17 16 15 16 15 14 14 14 16 17 17 18 16 15 14 14 14 14 14 13 14 13 14 15 16 16 17 17 17 18 17 17 16 16 nan nan nan nan 16 16 16 nan nan nan nan 16 nan 17 17 17 19 nan nan nan nan nan 21 21 nan nan nan nan nan nan nan nan nan nan
21 20 19 19 16 23 24 22 21 19 19 20 23 22 20 19 18 17 17 17 17 17 16 15 15 14 14 16 17 16 16 16 15 15 14 14 14 14 14 15 16 16 17 17 18 19 19 nan nan nan nan nan nan 17 16 nan nan nan nan nan nan 16 17 17 16 14 nan nan nan nan nan nan nan nan nan nan nan nan nan nan nan nan nan nan nan
21 19 14 16 12 23 23 19 16 16 18 20 24 23 21 20 19 18 17 16 16 17 17 17 16 14 14 14 14 15 17 17 18 17 16 14 14 14 14 14 16 17 17 18 19 20 nan nan nan 17 17 nan nan nan nan nan nan nan nan nan nan nan nan 17 17 15 18 nan nan nan nan nan nan nan nan nan nan nan nan nan nan nan nan nan nan
19 16 13 15 13 14 20 15 12 12 14 18 23 22 21 20 19 18 17 16 15 17 17 16 15 14 15 13 14 15 18 22 16 19 18 17 16 15 15 14 14 15 17 18 19 18 nan 19 18 17 17 nan nan nan nan nan nan nan nan nan nan nan nan 16 17 16 15 nan nan nan nan nan nan nan nan nan nan nan nan nan nan nan nan nan nan
17 12 13 11 9 11 6 11 9 9 11 15 20 21 21 20 19 18 17 16 16 17 18 16 17 15 15 16 17 20 24 20 17 19 19 19 19 18 17 16 15 15 16 18 19 18 18 nan 18 17 17 nan nan nan nan nan nan nan nan nan nan 15 nan nan 16 15 14 13 nan nan nan nan nan nan nan nan nan nan nan nan nan nan nan nan nan
15 15 12 5 6 6 8 6 3 4 7 12 16 19 20 19 19 18 17 17 17 17 18 16 17 16 17 18 24 26 21 18 15 19 18 19 18 18 19 18 18 17 18 18 18 18 nan nan 17 17 17 17 18 17 15 nan nan nan nan nan nan nan nan nan nan nan 13 nan nan nan nan nan nan nan nan nan nan nan nan nan nan nan nan nan nan
14 13 11 8 8 6 9 8 5 8 10 11 14 18 18 19 19 18 17 17 18 19 19 17 18 19 18 25 26 23 19 13 12 19 19 19 18 18 19 19 19 18 18 18 18 18 17 17 18 17 18 19 19 18 16 15 15 nan nan nan nan nan nan nan nan nan nan 12 nan nan nan nan nan nan nan 21 nan nan nan nan nan nan nan nan nan
13 12 11 11 9 9 6 4 4 10 13 13 15 17 18 19 20 19 19 18 19 21 20 19 18 19 21 27 23 19 15 15 13 19 20 20 19 19 20 20 20 19 19 18 18 18 17 18 19 18 18 19 19 18 16 14 14 14 13 nan nan nan nan nan nan nan nan nan nan nan nan nan nan 16 nan nan nan nan nan nan nan nan nan nan nan
11 8 8 14 12 6 1 3 9 10 13 13 14 16 16 19 21 21 20 20 20 21 21 21 20 21 25 25 21 18 17 15 17 20 22 22 22 22 21 20 20 20 20 19 19 19 19 19 18 17 17 15 14 14 13 12 12 13 13 nan nan nan nan nan nan nan nan nan nan nan nan nan nan nan nan nan nan nan nan nan nan nan nan nan nan
14 13 10 13 12 6 10 1 5 4 11 12 13 16 16 19 22 22 22 22 21 21 20 21 22 23 24 21 22 20 16 12 15 21 22 23 23 23 22 20 20 21 20 20 20 20 20 20 18 17 15 13 12 12 12 12 11 12 13 nan nan nan nan nan nan nan nan nan nan nan 9 nan nan nan nan nan nan nan nan nan nan nan nan nan nan
17 14 12 14 16 5 13 4 2 2 12 14 12 15 17 19 22 23 21 22 23 22 21 21 22 25 25 23 20 18 15 13 19 21 22 22 23 23 23 21 21 21 22 21 20 21 20 21 20 17 15 12 11 9 9 11 12 12 14 14 nan nan nan nan nan nan nan nan nan nan nan nan nan nan nan nan nan nan nan nan nan nan nan nan nan
15 14 10 11 15 3 11 2 9 13 10 5 11 16 20 21 22 21 20 18 22 22 21 23 25 25 25 22 20 16 15 14 20 21 22 22 22 21 21 21 21 22 23 23 23 23 22 21 19 16 14 11 9 9 9 11 14 13 14 14 14 nan nan nan nan nan nan nan nan nan nan nan nan nan nan nan nan nan nan nan nan nan nan nan nan
14 13 10 6 9 10 6 11 12 14 13 13 17 19 22 26 20 20 21 21 17 22 23 25 24 23 23 23 21 19 18 18 20 22 23 22 22 21 20 20 20 22 23 25 25 26 24 21 18 16 15 13 11 10 11 13 15 15 15 13 13 nan nan nan nan nan nan nan nan nan nan nan nan nan nan nan nan nan nan nan nan nan nan nan nan
14 11 6 5 6 6 7 15 16 14 10 16 24 23 23 26 25 21 20 15 16 23 24 22 21 21 22 22 21 18 19 19 20 22 23 23 23 22 21 20 21 21 22 24 25 26 26 23 19 17 17 17 17 15 14 15 16 16 15 13 13 nan nan nan nan nan nan nan nan nan nan nan nan nan nan nan nan nan nan nan nan nan nan nan nan
16 12 5 5 8 9 14 14 20 15 9 18 23 20 21 23 20 10 12 16 18 19 20 19 18 18 18 18 18 17 18 19 19 20 22 23 23 22 21 20 20 20 20 22 24 24 25 23 21 18 17 16 16 17 17 17 16 15 14 13 13 nan nan nan nan nan nan nan nan nan nan nan nan 14 nan nan nan nan nan nan nan nan nan nan nan
13 11 6 6 10 11 10 16 17 18 16 19 20 21 18 18 15 13 16 16 16 17 16 16 15 14 14 15 15 15 16 17 18 19 21 22 21 21 21 20 20 19 19 20 23 24 23 22 20 19 18 17 16 16 16 17 16 14 13 12 11 nan nan 5 nan nan nan nan nan nan nan nan nan 14 nan nan nan nan nan nan nan nan nan nan nan
12 13 13 11 13 10 9 14 19 19 21 20 20 22 24 24 21 19 19 18 16 15 14 13 13 12 12 13 13 13 14 14 16 19 21 21 21 20 20 20 19 19 18 19 21 23 23 22 21 19 19 19 18 17 16 15 14 13 11 10 9 nan nan nan nan nan nan nan nan nan nan nan nan nan nan nan nan nan nan nan nan nan nan nan nan
10 11 14 12 10 8 9 16 14 17 18 20 24 26 24 25 24 20 20 19 17 15 13 12 11 11 11 12 12 12 12 12 12 16 20 21 21 20 19 19 19 19 18 18 20 21 22 22 21 20 19 19 19 18 16 13 12 11 9 8 9 10 nan nan nan nan nan nan nan nan nan nan nan nan nan nan nan nan nan nan nan nan nan nan nan
8 9 10 12 12 9 14 16 16 16 19 20 21 21 25 26 24 20 20 20 16 12 12 12 12 12 11 11 11 11 11 10 10 13 17 19 20 19 18 18 19 18 19 19 20 21 22 21 21 19 17 17 16 14 11 11 9 9 8 9 9 9 3 nan nan nan nan nan nan nan nan nan nan nan nan nan nan nan nan nan nan nan nan nan nan
7 9 10 13 10 12 16 19 19 18 19 17 16 18 25 26 23 22 22 20 18 15 14 14 13 12 12 10 9 10 9 8 7 10 13 17 19 18 18 18 18 19 19 20 21 22 22 21 18 15 14 13 13 11 10 9 8 7 8 9 9 9 nan nan nan nan nan nan nan nan nan nan nan nan nan nan nan nan nan nan nan nan nan nan nan
5 8 8 9 14 17 18 20 23 23 21 18 16 20 22 22 21 22 21 19 17 13 12 11 11 11 9 8 6 9 8 6 2 7 7 12 16 17 17 17 17 18 19 18 20 22 20 18 14 12 10 11 10 9 8 7 6 6 8 9 9 8 nan nan nan nan nan nan nan nan nan nan nan nan nan nan nan nan nan nan nan nan nan nan nan
7 8 8 8 11 14 19 22 24 26 22 17 17 21 18 14 17 13 16 13 12 11 10 11 11 11 8 9 11 10 10 9 9 7 8 8 12 15 15 13 14 14 15 16 17 17 17 15 12 9 9 7 7 7 10 11 8 8 8 9 8 12 14 13 nan nan nan nan nan nan nan nan nan nan nan nan nan nan nan nan nan nan nan nan nan
10 10 10 8 8 12 15 20 24 27 24 17 20 27 25 19 14 12 13 14 15 15 14 13 14 14 14 13 12 12 12 12 12 12 10 13 12 12 12 12 12 12 12 14 14 14 14 14 12 9 7 4 3 4 7 10 12 10 10 9 8 13 14 13 12 nan nan nan nan nan nan nan nan nan nan nan nan nan nan nan nan nan nan nan nan
11 12 12 10 9 8 11 18 23 27 24 19 23 29 26 21 20 19 17 16 16 15 16 16 16 16 15 14 14 14 13 13 13 10 8 8 10 7 8 9 8 9 10 8 10 10 11 12 11 8 5 nan 5 7 8 10 12 11 11 11 12 12 11 12 11 12 11 nan nan nan nan nan nan nan nan nan nan nan nan nan nan nan nan nan nan
11 12 12 9 8 5 6 15 22 26 24 24 28 30 25 23 22 21 19 17 16 15 15 16 16 16 15 15 16 15 14 14 14 13 12 11 11 9 7 7 7 7 7 5 7 8 6 8 9 7 5 5 7 8 10 11 10 11 12 11 12 11 11 11 12 10 11 13 16 nan nan nan nan nan nan nan nan nan nan nan nan nan nan nan nan
10 11 11 9 8 6 7 12 18 20 21 23 26 24 22 22 20 19 17 16 16 16 15 16 16 16 15 16 15 15 13 14 14 14 14 13 12 12 11 12 12 11 9 9 10 9 9 10 9 10 10 9 10 10 9 10 10 10 11 11 11 11 11 11 11 11 11 12 18 nan nan nan nan nan nan nan nan nan nan nan nan nan nan nan nan
10 10 9 7 6 7 6 9 12 16 20 22 21 20 20 18 17 17 15 16 16 16 16 16 16 16 15 16 15 15 15 15 15 15 14 13 13 12 13 13 12 12 13 11 12 11 11 12 12 12 12 11 10 12 11 10 11 11 11 10 11 11 11 11 12 11 12 13 19 nan nan nan nan nan nan nan nan nan nan nan nan nan nan nan nan
11 9 9 7 6 7 8 10 13 16 18 19 19 18 17 16 15 15 15 17 16 17 17 17 16 16 17 16 17 17 16 16 16 16 15 14 14 13 13 12 11 12 14 12 11 11 12 12 13 13 12 12 12 11 13 13 12 11 12 11 11 11 11 11 12 13 13 14 14 20 nan nan nan nan nan nan nan nan nan nan nan nan nan nan nan
11 9 10 9 6 7 9 10 11 12 11 12 14 15 15 15 16 16 17 17 17 17 18 17 17 18 18 18 18 18 17 17 17 17 15 15 14 13 12 12 11 13 12 13 13 12 12 12 12 12 12 12 13 13 13 12 13 12 11 11 12 12 12 12 12 13 13 14 12 19 19 nan nan 12 12 nan nan 12 nan nan nan nan nan nan nan
12 11 11 9 8 9 12 11 10 10 11 12 12 14 15 17 18 19 19 18 18 18 18 19 19 20 20 20 20 19 19 18 18 17 16 16 15 14 13 13 12 12 11 12 13 12 12 12 12 11 13 14 13 15 14 13 12 13 13 12 14 13 14 13 13 14 15 14 14 18 22 19 15 14 13 13 13 13 13 nan nan nan nan nan nan
13 13 11 11 11 11 11 12 12 12 12 14 15 16 18 19 20 20 19 19 19 18 20 21 22 23 23 22 21 21 20 19 18 17 15 15 14 14 15 15 14 13 12 12 13 13 13 12 13 13 14 13 14 14 13 13 13 13 16 15 15 16 16 16 15 15 14 15 16 16 21 22 19 16 15 14 14 14 14 15 nan nan 14 nan nan
14 13 13 12 11 12 13 13 14 14 14 15 16 17 17 18 19 20 21 21 19 20 21 22 24 25 24 23 22 21 20 20 18 16 15 14 15 16 17 16 16 15 14 14 13 13 13 13 14 14 14 14 13 14 14 13 14 14 15 17 17 16 17 17 16 17 16 17 16 17 18 21 22 19 17 16 15 14 15 16 15 15 15 15 nan
14 14 15 13 12 14 14 15 15 15 15 16 16 17 18 19 20 21 22 21 21 21 22 24 25 25 24 23 22 21 20 19 18 16 14 14 16 17 18 19 18 19 17 16 14 14 14 14 15 15 15 15 15 15 15 16 15 15 15 16 18 16 16 17 18 19 18 20 21 20 20 19 22 25 21 19 17 16 15 15 15 15 15 15 16
15 13 15 13 13 14 15 15 16 17 17 18 19 20 20 20 21 22 23 22 23 22 23 23 24 24 24 24 22 22 21 21 19 17 15 16 17 18 19 20 21 21 20 20 18 18 17 17 17 17 17 16 16 16 17 17 17 17 17 16 17 17 18 17 18 19 19 19 20 21 21 21 20 22 22 23 21 19 17 16 15 14 14 14 15
16 16 16 nan 17 17 15 16 17 19 19 20 21 21 21 21 22 23 24 24 24 23 23 23 23 25 24 24 24 23 22 22 21 20 20 20 20 19 19 20 22 22 21 23 22 22 21 20 20 19 19 19 18 18 18 18 18 18 19 19 17 19 20 18 19 18 19 20 20 20 21 20 20 20 20 23 25 23 21 19 17 15 14 14 14
18 19 19 nan nan nan 19 21 21 22 22 22 22 23 23 23 nan nan nan nan nan nan nan nan nan nan nan 25 26 24 23 24 24 24 24 24 23 22 21 22 22 22 22 23 23 23 24 24 23 22 21 20 20 21 21 20 20 20 20 21 20 20 20 21 22 21 21 22 22 22 21 20 20 20 21 20 23 26 26 23 21 19 17 16 15
18 19 19 nan 20 21 22 24 24 24 25 26 nan nan nan nan nan nan nan nan nan nan nan nan nan nan nan nan 27 25 25 26 26 27 26 25 24 24 24 23 23 23 23 23 23 24 24 24 25 24 23 22 22 21 22 22 22 22 22 22 22 22 22 22 23 23 23 23 22 22 22 21 21 22 21 21 21 22 31 27 26 23 22 20 18
18 18 19 21 22 22 nan nan nan nan nan nan nan nan nan nan nan nan 28 nan 28 nan nan nan nan nan nan nan nan 28 29 30 29 30 29 27 26 26 26 25 24 25 24 24 24 24 25 25 24 25 25 24 24 24 24 24 24 24 24 23 24 24 24 24 24 24 23 23 24 22 22 22 23 22 22 22 22 23 24 29 28 27 25 24 22
19 20 22 23 23 24 nan nan nan nan nan nan nan nan 26 nan nan 28 29 29 30 31 30 31 32 32 34 33 33 33 33 33 32 32 32 31 29 28 27 27 26 26 26 25 25 25 26 25 25 25 26 26 26 26 26 26 25 24 24 23 24 24 24 24 25 25 26 25 24 24 24 25 25 24 24 23 24 23 22 23 26 23 24 28 25
22 23 24 24 25 26 nan nan nan nan nan nan nan nan nan nan nan 27 29 30 31 32 32 33 33 35 36 35 36 36 35 34 33 33 33 33 31 30 30 29 28 27 27 26 26 26 27 26 26 25 26 27 27 28 28 27 26 25 23 24 23 23 22 23 24 24 25 26 27 28 27 26 27 27 25 25 24 25 24 23 23 23 22 30 31
23 24 25 25 25 nan nan nan nan 24 nan nan nan nan nan nan nan nan 29 30 31 32 33 34 34 35 34 36 36 36 36 35 34 33 33 33 32 31 30 29 29 29 28 27 27 26 27 27 27 27 26 26 27 28 29 28 26 25 25 25 26 26 25 25 24 24 25 26 27 28 29 29 29 29 28 28 26 26 26 26 25 24 23 22 30
23 24 25 26 26 nan nan nan nan nan nan nan nan nan nan nan nan nan nan nan nan 32 33 nan 34 34 34 35 35 35 35 34 34 33 32 32 32 32 31 31 30 30 30 29 28 28 27 27 27 26 26 25 25 27 28 27 26 26 25 26 26 27 29 29 27 27 27 27 28 28 29 30 30 30 31 31 31 29 27 27 27 26 24 24 24
23 24 24 nan nan nan nan nan nan nan nan nan nan nan nan nan nan nan nan 33 34 33 nan nan 35 34 35 35 35 35 35 35 34 34 32 33 33 32 33 33 33 33 32 31 30 27 26 25 25 25 24 24 24 25 27 27 25 25 24 24 26 27 34 32 33 31 31 30 29 29 30 31 31 32 32 32 32 31 30 30 29 28 27 26 25
22 nan nan nan nan nan nan nan nan 24 nan nan nan nan nan 29 30 31 33 nan 34 35 35 35 35 36 36 36 35 35 35 35 35 34 35 34 33 33 33 34 34 35 34 33 31 27 26 24 23 24 24 23 24 26 28 26 25 24 23 24 24 24 24 29 31 29 28 28 29 29 31 32 32 33 33 33 34 34 33 32 30 30 29 27 26
18 20 nan nan nan nan nan nan nan nan nan nan nan nan nan 30 30 31 32 34 35 36 36 nan nan nan nan 36 35 35 35 36 36 35 35 34 33 34 33 33 33 32 32 31 29 29 27 25 23 23 23 23 23 25 25 26 24 25 22 21 20 21 22 25 24 23 29 29 29 28 29 30 31 32 31 33 33 34 35 34 33 32 31 29 28
19 20 22 nan nan nan nan nan nan nan nan nan nan nan nan nan 32 33 34 34 nan nan nan nan nan 37 36 35 35 36 36 36 35 35 36 33 32 32 32 31 31 30 29 28 27 27 26 25 24 23 23 24 23 23 23 26 23 21 20 18 17 16 17 19 19 22 28 26 26 26 27 28 28 29 29 29 30 32 33 34 36 34 33 32 30
21 23 nan nan nan nan nan nan nan nan nan nan nan nan nan 33 34 35 36 37 nan nan 38 38 37 37 36 36 36 36 37 37 35 34 33 33 32 30 29 28 28 28 27 26 25 24 25 25 24 23 22 22 22 21 21 22 22 20 18 16 15 15 16 18 19 20 21 27 28 26 26 26 26 26 27 27 28 30 30 32 34 33 35 34 33
23 24 nan nan nan nan nan nan nan nan nan nan nan nan nan 32 33 34 35 nan nan nan nan 39 38 37 37 37 37 37 38 37 35 34 32 33 32 30 29 28 26 26 24 24 24 24 23 23 22 21 19 19 19 19 19 20 19 19 18 16 15 15 16 17 18 19 20 20 24 28 28 28 27 26 26 27 26 28 29 30 29 32 34 34 34
22 24 nan nan nan nan nan nan nan nan nan nan nan nan nan 28 28 28 29 nan nan nan nan nan 34 35 35 35 35 36 36 35 34 33 33 33 32 30 30 28 27 26 24 23 23 23 22 21 21 20 19 19 19 19 19 19 18 18 17 17 17 18 19 20 20 21 19 19 21 25 28 29 28 27 28 28 27 26 27 28 29 29 31 32 32
22 23 23 nan nan nan nan nan nan nan nan nan nan nan nan nan 24 24 nan nan nan nan 24 26 27 28 30 30 31 31 32 31 31 31 31 31 31 30 30 29 28 26 26 25 25 24 23 22 22 21 20 19 20 19 19 19 19 19 18 19 19 19 21 23 23 23 21 19 20 23 27 28 28 31 29 26 24 25 25 26 28 28 29 31 33
21 22 22 nan nan nan nan nan nan nan nan nan nan nan nan nan nan nan nan nan nan 21 21 22 23 24 26 27 27 28 30 29 29 30 30 30 29 29 29 28 28 28 26 26 26 26 25 24 24 23 22 22 22 22 21 22 21 22 22 22 22 23 23 24 23 22 21 20 20 22 24 26 27 27 29 30 27 24 24 27 27 30 30 33 36
Wind_Direction
312 316 320 317 323 322 315 306 305 296 283 274 261 261 261 264 269 274 279 276 273 268 264 259 254 252 251 251 246 244 245 248 251 251 251 252 255 256 256 257 260 264 266 268 267 265 261 263 264 266 271 nan nan nan nan 275 279 283 nan nan nan nan 267 nan 283 282 283 281 nan nan nan nan nan 285 283 nan nan nan nan nan nan nan nan nan nan
314 319 322 320 319 320 319 300 292 286 275 267 260 262 262 258 260 263 267 268 268 265 263 261 259 255 253 252 251 247 248 248 253 254 253 253 252 256 261 265 266 269 272 271 268 264 261 nan nan nan nan nan nan 273 278 nan nan nan nan nan nan 274 278 277 276 284 nan nan nan nan nan nan nan nan nan nan nan nan nan nan nan nan nan nan nan
306 306 313 314 296 301 307 291 277 274 266 264 260 259 261 257 256 257 261 264 265 268 266 265 262 261 258 259 257 253 251 248 240 251 250 251 255 259 259 264 270 273 274 272 269 267 nan nan nan 265 265 nan nan nan nan nan nan nan nan nan nan nan nan 292 293 291 290 nan nan nan nan nan nan nan nan nan nan nan nan nan nan nan nan nan nan
299 298 311 303 253 254 285 269 253 256 256 261 259 257 259 258 257 260 262 264 264 265 267 268 266 264 266 259 258 257 251 246 242 243 248 250 253 251 255 259 264 266 265 267 268 267 nan 264 263 263 262 nan nan nan nan nan nan nan nan nan nan nan nan 300 301 297 296 nan nan nan nan nan nan nan nan nan nan nan nan nan nan nan nan nan nan
295 287 287 277 241 232 230 253 241 236 245 257 256 254 258 259 259 262 264 265 265 264 265 263 262 257 259 257 251 246 241 235 231 243 246 248 249 254 257 259 260 262 264 266 269 269 265 nan 263 262 261 nan nan nan nan nan nan nan nan nan nan 289 nan nan 301 302 304 312 nan nan nan nan nan nan nan nan nan nan nan nan nan nan nan nan nan
290 282 292 305 285 304 168 189 258 265 254 253 251 254 257 259 259 258 260 264 266 265 264 263 260 256 251 250 244 240 237 231 224 245 245 248 253 255 256 257 259 260 263 265 270 269 nan nan 264 262 260 258 252 244 247 nan nan nan nan nan nan nan nan nan nan nan 319 nan nan nan nan nan nan nan nan nan nan nan nan nan nan nan nan nan nan
299 294 298 276 281 248 200 137 334 336 305 266 251 255 256 257 256 257 260 263 267 269 266 258 251 251 248 247 244 246 248 241 217 247 245 245 250 256 261 259 259 261 267 274 274 270 266 260 258 258 258 255 252 249 246 250 262 nan nan nan nan nan nan nan nan nan nan 338 nan nan nan nan nan nan nan 298 nan nan nan nan nan nan nan nan nan
314 314 309 298 235 231 238 82 291 327 312 283 257 253 254 256 257 257 257 260 262 264 262 258 257 254 249 249 255 252 247 241 238 250 249 249 249 253 257 261 264 265 268 272 273 270 265 256 250 252 256 260 256 248 250 256 258 266 273 nan nan nan nan nan nan nan nan nan nan nan nan nan nan 298 nan nan nan nan nan nan nan nan nan nan nan
295 286 277 259 248 215 328 39 312 319 313 293 266 252 254 257 258 257 254 254 255 256 259 259 257 255 253 261 263 259 251 244 241 247 248 249 250 252 256 260 266 269 269 269 270 267 260 256 255 255 255 257 256 254 257 258 263 268 271 nan nan nan nan nan nan nan nan nan nan nan nan nan nan nan nan nan nan nan nan nan nan nan nan nan nan
291 291 275 264 250 188 102 243 221 302 306 296 260 237 231 247 253 253 254 253 253 255 256 256 255 255 257 261 267 269 266 248 250 250 248 250 252 252 253 256 261 264 265 263 264 264 259 254 252 247 247 248 250 250 254 268 272 274 276 nan nan nan nan nan nan nan nan nan nan nan 274 nan nan nan nan nan nan nan nan nan nan nan nan nan nan
297 294 287 277 271 142 102 269 37 224 244 225 237 243 239 231 231 238 239 247 250 253 254 254 255 255 254 256 260 262 265 258 258 253 251 251 252 253 256 257 258 259 260 260 260 261 258 252 245 241 236 236 242 251 262 265 280 283 281 281 nan nan nan nan nan nan nan nan nan nan nan nan nan nan nan nan nan nan nan nan nan nan nan nan nan
292 291 297 286 278 302 76 9 248 241 241 236 239 243 235 232 238 235 231 230 247 249 249 251 251 253 256 258 260 259 253 255 259 254 254 254 256 256 259 262 263 263 261 260 256 256 255 250 244 240 236 235 241 257 271 282 287 290 287 285 280 nan nan nan nan nan nan nan nan nan nan nan nan nan nan nan nan nan nan nan nan nan nan nan nan
297 296 300 300 289 324 21 264 263 242 228 231 236 239 237 232 219 233 229 229 233 247 248 248 250 253 257 260 261 262 258 260 261 259 258 259 261 262 261 262 264 264 263 260 259 256 254 252 248 244 243 245 253 262 277 286 292 294 290 288 286 nan nan nan nan nan nan nan nan nan nan nan nan nan nan nan nan nan nan nan nan nan nan nan nan
292 290 289 287 290 289 311 302 286 272 253 251 249 234 231 230 225 215 225 234 223 238 245 247 250 255 258 261 264 265 260 254 258 260 261 262 263 264 264 262 260 262 264 264 261 258 255 251 249 248 249 250 253 259 270 281 288 294 291 289 288 nan nan nan nan nan nan nan nan nan nan nan nan nan nan nan nan nan nan nan nan nan nan nan nan
296 292 286 280 281 276 271 285 295 284 268 259 258 253 242 236 235 212 231 234 240 243 248 254 258 262 265 267 268 268 264 259 258 261 260 259 261 263 265 266 263 264 266 265 263 260 258 253 251 251 254 256 255 254 260 271 283 290 292 290 287 nan nan nan nan nan nan nan nan nan nan nan nan 289 nan nan nan nan nan nan nan nan nan nan nan
299 297 269 272 278 272 279 294 284 281 267 263 263 254 248 246 244 241 235 236 241 242 248 256 263 269 274 275 270 267 269 263 259 260 258 255 254 257 259 262 264 266 267 268 268 266 265 261 257 255 257 258 259 258 258 266 276 286 291 292 287 nan nan 159 nan nan nan nan nan nan nan nan nan 299 nan nan nan nan nan nan nan nan nan nan nan
306 299 272 280 297 273 323 302 284 277 266 262 251 239 233 229 231 237 242 239 235 237 243 253 261 273 276 272 266 265 268 266 262 259 258 256 252 252 254 257 262 267 270 272 273 274 272 270 266 262 261 262 262 260 259 260 265 277 288 295 290 nan nan nan nan nan nan nan nan nan nan nan nan nan nan nan nan nan nan nan nan nan nan nan nan
295 285 275 277 275 268 286 268 248 248 253 243 227 226 227 231 233 226 238 236 232 235 240 248 257 267 275 276 275 268 264 263 263 261 258 257 255 254 253 255 261 266 270 274 277 278 279 276 273 270 266 264 262 261 258 257 261 269 284 295 295 285 nan nan nan nan nan nan nan nan nan nan nan nan nan nan nan nan nan nan nan nan nan nan nan
290 286 281 267 282 305 268 269 250 243 236 219 211 218 229 227 232 232 234 240 236 235 237 241 245 246 254 264 268 267 264 259 257 249 253 253 254 255 253 254 259 263 266 269 273 277 278 278 274 270 269 266 262 257 252 256 264 276 283 291 295 291 314 nan nan nan nan nan nan nan nan nan nan nan nan nan nan nan nan nan nan nan nan nan nan
309 292 285 285 292 274 254 246 248 231 217 226 217 224 223 218 229 234 236 235 231 227 231 235 238 237 238 252 267 274 277 268 265 259 248 243 236 238 249 254 256 260 261 265 270 273 273 273 271 270 266 265 261 255 250 250 260 289 293 294 291 299 nan nan nan nan nan nan nan nan nan nan nan nan nan nan nan nan nan nan nan nan nan nan nan
336 322 302 271 259 258 250 240 225 210 203 221 226 219 209 213 223 227 228 230 236 237 237 239 242 240 246 253 262 248 252 259 308 254 275 240 236 239 240 245 252 253 254 256 264 268 267 267 265 262 262 265 264 264 254 253 274 287 304 299 297 287 nan nan nan nan nan nan nan nan nan nan nan nan nan nan nan nan nan nan nan nan nan nan nan
328 329 311 278 268 269 260 239 220 208 204 212 208 200 201 202 215 203 210 225 230 239 233 226 232 239 252 236 232 236 238 234 233 233 232 244 239 227 230 236 241 243 242 245 251 258 265 270 268 259 255 268 303 293 284 272 270 285 298 304 294 260 261 263 nan nan nan nan nan nan nan nan nan nan nan nan nan nan nan nan nan nan nan nan nan
297 309 320 302 275 263 249 232 220 211 203 204 197 192 193 196 218 206 214 206 214 219 223 223 225 227 226 230 234 232 235 234 228 219 220 221 232 229 222 224 234 234 235 238 247 256 264 273 277 274 265 277 306 254 263 269 264 276 286 288 260 257 259 263 269 nan nan nan nan nan nan nan nan nan nan nan nan nan nan nan nan nan nan nan nan
299 305 316 319 294 268 234 214 212 208 201 201 196 188 188 194 199 205 205 206 210 214 219 222 226 226 231 233 235 236 237 241 246 250 242 236 245 242 222 216 230 245 246 236 254 257 271 278 283 288 288 nan 229 239 242 249 261 265 266 263 255 258 266 271 274 274 272 nan nan nan nan nan nan nan nan nan nan nan nan nan nan nan nan nan nan
302 307 310 308 286 276 240 219 215 210 202 200 194 187 186 192 198 203 204 206 210 214 218 224 228 232 237 237 241 238 234 235 239 241 235 235 239 239 235 226 232 233 257 223 241 254 264 261 268 283 252 238 227 222 223 240 241 252 254 255 259 261 265 275 272 276 282 284 284 nan nan nan nan nan nan nan nan nan nan nan nan nan nan nan nan
302 297 296 301 288 260 211 211 214 207 197 191 190 188 191 195 200 201 203 207 213 216 220 226 231 235 240 246 244 244 242 245 244 244 245 240 240 241 233 230 223 220 230 222 231 226 232 237 237 244 241 237 235 234 237 237 250 252 257 259 257 261 261 264 270 272 274 279 288 nan nan nan nan nan nan nan nan nan nan nan nan nan nan nan nan
282 287 298 298 291 275 229 200 196 187 187 185 185 191 195 197 196 201 201 216 217 221 227 231 237 236 240 244 248 248 242 242 247 248 247 246 245 244 244 241 237 233 228 221 226 227 224 234 236 238 241 240 245 247 244 248 233 243 259 257 257 257 258 261 263 265 266 266 282 nan nan nan nan nan nan nan nan nan nan nan nan nan nan nan nan
281 289 293 297 275 250 231 204 194 187 186 185 187 190 191 196 201 209 214 218 220 226 230 234 237 240 239 242 245 245 246 246 243 241 246 243 245 243 243 249 250 247 241 228 237 236 233 233 233 236 242 249 254 253 254 253 252 239 236 247 256 259 258 256 259 257 257 263 270 300 nan nan nan nan nan nan nan nan nan nan nan nan nan nan nan
284 284 283 276 250 236 234 221 211 205 198 198 200 198 198 202 208 214 219 220 225 229 231 235 238 243 243 242 244 244 246 246 245 244 239 241 241 241 244 252 251 252 245 241 235 243 244 240 240 236 246 250 256 261 258 254 258 255 250 251 252 252 258 260 262 264 266 263 263 291 310 nan nan 321 323 nan nan 323 nan nan nan nan nan nan nan
276 275 273 267 244 229 235 225 219 226 222 224 219 216 213 215 216 219 224 224 229 232 239 240 241 242 244 241 240 242 241 243 245 244 244 245 243 242 245 247 251 253 253 248 248 248 249 253 251 250 250 257 254 257 258 263 264 264 265 261 266 264 265 263 264 267 268 272 270 279 311 313 320 323 324 325 325 324 323 nan nan nan nan nan nan
273 265 254 245 233 238 233 222 219 220 227 228 226 225 222 222 223 223 226 229 232 236 238 239 240 240 240 240 241 241 240 240 241 243 246 250 252 253 249 247 251 254 253 254 254 250 253 251 255 256 257 256 259 260 263 262 265 271 275 276 274 274 273 269 265 265 263 269 273 274 300 313 318 321 322 323 325 323 322 321 nan nan 330 nan nan
269 261 253 249 246 240 232 224 224 221 227 228 227 229 229 229 228 227 228 230 230 234 238 240 238 238 236 237 239 239 237 238 238 241 244 250 255 257 256 255 252 254 257 250 253 254 254 259 258 259 258 257 259 259 262 262 266 269 274 280 279 277 275 275 275 274 274 271 270 276 278 298 314 318 320 317 319 322 320 323 325 329 332 333 nan
261 258 254 253 246 238 233 230 230 232 231 229 226 228 229 231 233 232 230 227 231 235 237 237 237 238 236 233 233 235 235 235 237 237 244 256 262 263 263 262 261 257 255 255 247 254 259 262 269 265 266 270 266 270 270 268 268 268 268 274 277 277 273 273 275 277 280 283 283 279 280 284 296 315 317 317 318 319 321 321 325 329 332 335 336
265 256 258 251 241 238 235 233 232 232 230 227 229 232 231 235 236 236 234 232 237 239 239 238 237 235 236 234 231 234 234 234 234 241 251 263 271 270 265 265 263 263 260 260 260 259 261 264 264 267 268 267 271 271 272 275 274 275 276 271 274 271 272 276 277 277 279 280 281 283 284 284 285 291 303 318 319 319 319 320 323 326 328 332 334
259 255 254 nan 246 245 244 242 241 238 235 233 235 237 234 234 237 237 237 234 240 239 237 236 236 236 232 240 237 238 237 237 240 246 259 269 272 271 270 268 265 262 262 264 260 263 264 264 265 265 266 270 269 270 272 270 269 270 272 276 277 283 284 279 277 276 277 279 278 283 285 285 286 286 289 296 313 321 320 322 323 322 324 325 330
253 256 255 nan nan nan 250 251 249 246 242 240 239 239 239 237 nan nan nan nan nan nan nan nan nan nan nan 242 243 241 241 243 247 254 262 269 270 270 269 265 265 263 262 262 264 264 265 266 266 267 266 267 271 274 274 275 276 276 274 275 279 279 282 283 285 285 285 283 285 286 286 287 288 290 290 289 292 308 321 321 323 324 320 322 324
256 259 259 nan 254 250 249 250 252 252 249 247 nan nan nan nan nan nan nan nan nan nan nan nan nan nan nan nan 244 244 247 252 256 260 263 265 268 267 268 267 267 265 263 264 265 266 267 268 269 268 267 267 267 268 273 275 276 277 278 280 280 281 282 282 283 285 285 287 287 289 291 292 292 291 291 291 291 291 312 319 323 322 322 320 322
251 255 256 257 255 248 nan nan nan nan nan nan nan nan nan nan nan nan 250 nan 251 nan nan nan nan nan nan nan nan 250 255 259 262 264 266 265 264 264 263 267 267 266 266 265 265 266 267 269 270 272 273 272 271 269 271 272 273 276 278 281 282 283 284 285 285 285 286 289 290 290 290 290 291 292 290 290 287 291 292 311 320 321 323 322 324
244 251 254 254 252 248 nan nan nan nan nan nan nan nan 257 nan nan 256 258 259 260 259 256 256 255 255 253 251 252 255 259 261 262 264 266 267 268 268 266 266 268 268 267 268 270 270 270 271 272 274 277 276 274 273 272 272 275 277 279 281 283 287 287 288 288 288 290 290 288 285 287 291 290 290 290 289 289 288 291 291 300 302 311 327 326
248 251 255 254 253 252 nan nan nan nan nan nan nan nan nan nan nan 263 262 260 262 261 260 259 257 256 255 255 256 258 259 260 261 261 264 266 267 268 268 268 269 269 270 270 271 274 275 274 275 273 273 275 279 280 278 277 278 279 283 286 287 287 290 288 290 291 289 290 291 291 292 289 289 290 291 289 287 290 290 290 291 296 298 314 324
251 255 256 256 254 nan nan nan nan 253 nan nan nan nan nan nan nan nan 265 265 263 265 264 262 259 259 255 256 257 258 258 260 261 261 263 264 268 269 271 272 271 272 273 273 273 271 272 274 275 277 277 277 277 276 277 277 279 283 288 289 288 290 291 293 293 292 290 289 288 287 286 286 286 287 287 287 285 285 288 291 292 291 293 287 305
253 258 258 257 258 nan nan nan nan nan nan nan nan nan nan nan nan nan nan nan nan 262 262 nan 260 260 259 258 259 258 259 260 261 262 264 264 266 269 271 273 273 271 271 273 272 274 275 277 278 280 284 282 281 278 277 276 285 284 282 283 286 291 294 291 294 294 293 290 288 286 285 283 284 282 282 283 285 286 288 290 290 291 289 289 288
258 261 262 nan nan nan nan nan nan nan nan nan nan nan nan nan nan nan nan 271 270 266 nan nan 264 262 263 261 260 260 261 261 261 263 265 265 264 266 269 272 272 273 274 274 274 274 276 278 281 283 283 286 286 288 286 284 283 283 286 287 289 286 291 293 291 290 289 288 287 288 287 287 286 284 283 285 285 286 287 288 289 289 290 289 288
266 nan nan nan nan nan nan nan nan 269 nan nan nan nan nan 270 270 269 270 nan 269 273 272 271 268 267 266 264 264 263 263 264 264 263 265 265 264 265 266 268 270 270 271 272 271 272 274 276 280 282 283 286 290 288 291 291 288 285 292 291 287 290 290 296 295 292 292 294 292 290 289 286 286 288 286 286 286 284 284 283 284 286 287 287 286
272 268 nan nan nan nan nan nan nan nan nan nan nan nan nan 271 272 275 275 275 274 270 271 nan nan nan nan 270 269 268 268 267 267 267 268 268 268 268 269 270 271 271 272 273 274 274 275 276 277 280 285 285 286 287 289 292 293 290 290 290 296 301 297 287 282 290 292 289 292 288 287 289 288 285 286 286 286 286 285 284 281 281 282 285 288
270 266 265 nan nan nan nan nan nan nan nan nan nan nan nan nan 271 272 272 272 nan nan nan nan nan 268 268 270 270 269 269 270 271 271 270 270 269 270 270 271 271 272 272 274 275 276 279 278 278 278 281 286 285 288 291 293 291 292 293 291 284 280 278 280 286 291 292 294 287 286 283 282 285 287 285 285 285 283 283 285 285 283 284 285 284
272 271 nan nan nan nan nan nan nan nan nan nan nan nan nan 275 275 275 275 274 nan nan 272 272 270 270 270 269 271 271 269 271 271 272 273 272 271 271 271 273 274 274 274 275 276 276 278 279 278 277 277 281 285 287 288 287 289 292 289 286 288 292 289 287 287 284 290 291 291 289 287 283 279 279 283 284 284 283 283 283 284 284 283 283 282
276 275 nan nan nan nan nan nan nan nan nan nan nan nan nan 280 281 281 280 nan nan nan nan 274 273 272 271 270 272 273 273 272 273 273 273 273 271 271 270 269 269 269 272 274 275 275 277 279 279 278 279 280 279 283 282 281 278 275 273 273 282 285 287 288 291 285 282 281 284 286 284 284 280 277 279 281 283 283 280 280 280 284 285 283 280
277 277 nan nan nan nan nan nan nan nan nan nan nan nan nan 282 283 283 284 nan nan nan nan nan 275 274 272 273 272 273 275 274 273 273 272 270 270 269 267 267 265 266 267 271 274 276 276 275 276 278 280 281 281 279 277 272 267 262 261 269 275 281 285 291 288 287 283 280 280 277 277 277 275 274 272 273 275 278 279 277 276 275 278 281 281
278 280 278 nan nan nan nan nan nan nan nan nan nan nan nan nan 283 285 nan nan nan nan 288 283 279 276 274 272 273 273 273 274 273 271 269 267 265 263 262 261 262 262 264 263 265 265 266 268 269 272 275 277 280 276 271 264 257 254 255 260 268 276 283 283 283 279 281 281 275 267 266 264 266 269 269 270 272 273 275 278 279 279 279 279 280
280 282 279 nan nan nan nan nan nan nan nan nan nan nan nan nan nan nan nan nan nan 293 291 287 282 278 275 273 273 273 273 272 270 270 267 263 262 261 259 257 258 259 260 261 262 264 265 268 268 270 273 271 270 267 262 259 255 253 255 262 268 272 276 277 275 274 275 279 274 269 265 266 265 265 273 271 267 266 269 274 279 282 281 276 270